Simultaneous Nadir Overpasses (SNOs) Predictions

Prediction of SNOs between AURA and NPP Satellite Orbit:

Table of predicted SNOs for the next 14.0 days since TLE Epoch: 7/29/2016
Index Date (AURA) Time (AURA) Lat,Lon (AURA) SZA (AURA ) Date (NPP) Time (NPP) Lat,Lon (NPP) SZA (NPP ) Distance(km) Time Diff (sec)
1 07/30/2016 02:51:46 79.21, 31.78 75.03 07/30/2016 02:51:40 79.20, 31.68 75.05 2.22 6
2 07/30/2016 03:41:04 -79.56,-158.21 105.50 07/30/2016 03:42:15 -79.56,-158.16 105.55 0.88 71
3 08/01/2016 18:18:55 -78.99, -21.31 104.03 08/01/2016 18:17:56 -78.98, -21.40 103.97 2.04 59
4 08/01/2016 19:08:11 79.37, 148.74 75.43 08/01/2016 19:08:29 79.37, 148.75 75.42 0.22 18
5 08/04/2016 10:35:19 -79.19, 95.81 103.64 08/04/2016 10:34:44 -79.20, 95.88 103.62 1.41 35
6 08/04/2016 11:24:40 79.38, -95.37 76.11 08/04/2016 11:25:23 79.37, -95.49 76.11 2.65 43
7 08/07/2016 02:51:45 -79.27,-147.84 103.03 08/07/2016 02:51:35 -79.26,-147.84 103.02 0.24 10
8 08/07/2016 03:41:03 79.56, 21.77 76.55 08/07/2016 03:42:10 79.57, 21.88 76.48 2.50 67
9 08/09/2016 18:18:53 78.99, 158.71 78.09 08/09/2016 18:17:51 78.98, 158.61 78.16 2.54 62
10 08/09/2016 19:08:12 -79.33, -31.55 102.38 08/09/2016 19:08:27 -79.33, -31.56 102.39 0.21 15
11 08/12/2016 10:35:18 79.13, -84.59 78.67 08/12/2016 10:34:41 79.12, -84.64 78.71 1.11 37




NCC Satellite Simultaneous Nadir Overpasses (SNOs) Prediction Service
